www.pogodaiklimat.ru

Погода и климат >> Архив погоды >> Россия >> Ханты-Мансийский АО >> Ваховск


ПОГОДА в Ваховске

  • Прогноз погоды в Ваховске
  • Монитор погоды в Ваховске
  • Климат города

АРХИВ ПОГОДЫ в Ваховске

Время (UTC), дата Ветер
(напр.,м/с)
 
Видим.   Явления Облачность Т
(С)
Тd
(С)
f
(%)
Тe
(С)
Тes
(С)
Комфортность P
(гПа)
Po
(гПа)
Тmin
(С)
Tmax
(С)
R
(мм)
R24
(мм)
S
(см)
21 18.04 Ю 3 10 км 10/0
[Ci fib]
-10.1 -17.2 56 -16 -16 1015.6 1008.4
00 19.04 Ю 4 н/о н/о -8.4 -16.3 53 -15 -15 1013.0 1005.9
03 19.04 Ю 5 10 км 10/0
[As trans]
-4.0 -14.2 45 -10 -9 1010.3 1003.3 -11.3 38
06 19.04 Ю 7-14
{14}
н/о н/о +0.6 -12.4 37 -5 -5 1008.1 1001.2
09 19.04 Ю 5
{14}
10 км 10/10 600 м
[Cb cap]
+2.7 -9.9 39 -2 -2 1006.3 999.5
15 19.04 Ю 5-10
{14}
10 км 10/10 600 м
[Cb cap]
+1.6 -7.0 53 -3 -3 1005.3 998.5 +3.1
18 19.04 Ю 4
{15}
10 км 10/10 600 м
[Cb cap]
+1.5 -7.6 51 -3 -3 1004.0 997.2
21 19.04 Ю 4
{10}
10 км 10/10 600 м
[Cb cap]
+1.1 -5.6 61 -4 -4 1003.0 996.2
03 20.04 Ю 5-10
{10}
10 км 10/10 600 м
[Cb cap]
+1.2 -4.4 66 -4 -4 1000.5 993.7 -1.0 0.3 38
06 20.04 Ю 5
{10}
н/о н/о +0.5 -1.6 86 -5 -5 999.4 992.6
09 20.04 ЮВ 4
{11}
10 км 10/10 600 м
[Cb cap]
+4.6 -2.1 62 +1 +1 998.0 991.2
15 20.04 штиль 0
{12}
10 км 10/10 600 м
[Cb cap]
+0.7 -0.6 91 -1 -1 999.1 992.3 +7.3 0.8
18 20.04 С 1 4000 м слабый ливневой снег 10/10 600 м
[Cb cap]
-0.0 -0.8 94 -2 -2 997.9 991.1
21 20.04 штиль 0 4000 м слабый ливневой снег 10/10 600 м
[Cb cap]
-0.1 -0.9 94 -1 -1 996.5 989.7
03 21.04 СЗ 2 4000 м слабый ливневой снег 10/10 600 м
[Cb cap]
-1.0 -2.6 89 -5 -5 998.0 991.2 -2.1 4 38
06 21.04 СЗ 3 н/о н/о -0.4 -3.8 78 -5 -5 999.4 992.6
09 21.04 СЗ 3 10 км {ливн. осадки} 10/10 600 м
[Cb cap]
-0.4 -6.5 63 -5 -5 1001.5 994.7
12 21.04 З 2 н/о н/о -0.9 -10.7 47 -4 -4 1003.2 996.3
18 21.04 С 2 10 км 10/0
[As trans]
-5.5 -13.1 55 -9 -9 1005.4 998.4
21 21.04 СЗ 1 10 км 10/0
[As trans]
-8.9 -13.4 70 -11 -11 1005.6 998.5
00 22.04 С 1 10 км 10/0
[Ci fib]
-12.1 -14.8 80 -14 -14 1005.6 998.4
03 22.04 СЗ 2 10 км 10/0
[Ci fib]
-7.1 -15.0 53 -11 -7 1005.8 998.7 -12.3 38
06 22.04 СЗ 3 н/о н/о -4.0 -14.7 43 -9 -9 1006.8 999.8
09 22.04 З 2 10 км ясно -1.5 -15.9 32 -4 +4 1008.6 1001.7
12 22.04 З 2 н/о н/о -1.5 -17.3 29 -4 -4 1011.3 1004.3
18 22.04 штиль 0 10 км 10/0
[Ci fib]
-7.8 -14.8 57 -8 -8 1016.2 1009.0
21 22.04 штиль 0 10 км 10/0
[Ci fib]
-12.7 -15.4 80 -13 -13 1018.1 1010.8
00 23.04 В 1 10 км 10/0
[Ci fib]
-14.5 -16.6 84 -17 -17 1019.1 1011.7
03 23.04 В 3 10 км 3/0
[Ci fib]
-1.8 -16.8 31 -6 -2 1019.5 1012.5 -15.1 38
06 23.04 В 3 н/о н/о +1.2 -15.5 28 -2 -2 1019.1 1012.1
09 23.04 СВ 4 10 км 10/0
[Ci fib]
+2.5 -13.8 29 -1 +3 1017.3 1010.4
12 23.04 СВ 4 н/о н/о +1.0 -13.0 34 -3 -3 1016.7 1009.8
18 23.04 СВ 1 10 км ясно -6.7 -12.9 61 -9 -9 1016.4 1009.3
21 23.04 СВ 1 н/о н/о -8.9 -12.9 73 -11 -11 1016.2 1009.0
00 24.04 СВ 1 10 км 10/0
[Ci fib]
-9.2 -13.0 74 -11 -11 1015.4 1008.2
03 24.04 ЮВ 3 10 км 10/0
[Ci fib]
-1.6 -9.7 54 -6 -3 1014.0 1007.0 -9.9 37
06 24.04 В 5 н/о н/о +3.1 -9.7 38 -1 -1 1011.4 1004.6
09 24.04 В 5
{10}
10 км 10/0
[Ci fib]
+5.0 -7.2 41 +1 +5 1008.6 1001.8
15 24.04 ЮВ 5
{11}
4000 м слабый ливневой дождь 10/10 600 м
[Cb cap]
+4.1 -0.3 73 -1 -1 1003.1 996.3 +5.6 0.3
18 24.04 ЮВ 5 4000 м слабый ливневой дождь 10/10 600 м
[Cb cap]
+3.2 +1.6 89 -2 -2 1001.9 995.1
21 24.04 ЮВ 3 4000 м слабый ливневой дождь 10/10 600 м
[Cb cap]
+3.1 +1.9 92 -1 -1 1000.1 993.4
03 25.04 ЮВ 1 10 км {ливн. осадки} 10/10 600 м
[Cb cap]
+3.2 +2.0 92 +2 +2 997.1 990.4 +2.4 4 31
06 25.04 ЮВ 1 н/о н/о +5.1 +3.5 89 +4 +4 996.9 990.3
09 25.04 Ю 1 10 км 9/9 600 м
[Cb cap]
+6.7 +3.5 80 +6 +7 998.3 991.6
12 25.04 ЮЗ 3 н/о н/о +3.9 +2.2 89 0 0 1001.2 994.4
15 25.04 Ю 2 10 км {ливн. осадки} 8/8 600 м
[Cb cap]
+2.2 +1.2 93 -1 -1 1003.3 996.5 +8.6 4
18 25.04 штиль 0 10 км {ливн. осадки} 4/4 600 м
[Sc]
-0.7 -1.5 94 -2 -2 1003.6 996.7

 

Местоположение метеостанции Ваховск (Ханты-Мансийский АО, Россия): широта 60.95 долгота 78.77 высота над уровнем моря 56 м.

В архиве по умолчанию представлена погода в Ваховске за последнюю неделю. Архивные данные за месяц целиком и за предыдущие месяцы, начиная с января 2011 года, Вы можете получить, выбрав интересующий диапазон дат из раскрывающегося списка и нажав кнопку "Ввод!".


*Определитесь, кто Вы:
робот инопланетянин человек

Внимание! Время в таблицах - всемирное. Для получения местного времени необходимо прибавить поправку, которая в Ваховске равна 5 ч.

Смотрите также архив погоды в соседних городах и на ближайших метеорологических станциях:

Погода в Александровском (Томская область, Россия) (76 км)
Погода в Ларьяке (Ханты-Мансийский АО, Россия) (81 км)
Погода в Нижневартовске (Ханты-Мансийский АО, Россия) (117 км)
Погода в Радужном (Ханты-Мансийский АО, Россия) (154 км)
Погода в Прохоркино (Томская область, Россия) (164 км)
Погода в Среднем Васюгане (Томская область, Россия) (195 км)
Погода в Корликах (Ханты-Мансийский АО, Россия) (206 км)
Погода в Напасе (Томская область, Россия) (213 км)
Погода в Каргасоке (Томская область, Россия) (239 км)
Погода в Угуте (Ханты-Мансийский АО, Россия) (263 км)

Пояснения к столбцам:

Ветер - указаны скорость ветра в м/с - средняя за 10 мин, порывы в срок и между сроками (в фигурных скобках) и направление, откуда дует ветер: С - северный, СВ - северо-восточный, В - восточный, ЮВ - юго-восточный, Ю - южный, ЮЗ - юго-западный, З - западный, СЗ - северо-западный.
Видимость - горизонтальная дальность видимости в метрах или километрах. При видимости от 1 до 10 км при отсутствии осадков обычно наблюдается дымка, при ухудшении видимости до 1 км и менее - туман. В сухую погоду видимость может ухудшаться дымом, пылью или мглою.
Явления - указаны атмосферные явления, наблюдавшиеся в срок или в последний час перед сроком; фигурными скобками обозначены явления, наблюдавшиеся между сроками (за 1-3 часа до срока); квадратными скобками обозначены град или гололедные отложения с указанием их диаметра в мм.
Облачность - указаны через наклонную черту общая и нижняя облачность в баллах и высота нижней границы облаков в метрах; квадратными скобками обозначены формы облаков: Ci - перистые, Cs - перисто-слоистые, Cc - перисто-кучевые, Ac - высококучевые, As - высокослоистые, Sc - слоисто-кучевые, Ns - слоисто-дождевые, Cu - кучевые, Cb - кучево-дождевые. Подробнее классификацию облаков см. в Атласе облаков (PDF).
T - Температура воздуха - температура, измеренная на высоте 2 м над землей.
Td - Температура точки росы - температура, при понижении до которой содержащийся в воздухе водяной пар достигнет насыщения.
f - Относительная влажность воздуха - влажноcть воздуха, измеренная на высоте 2 м над землей.
Te - Эффективная температура - температура, которую ощущает одетый по сезону человек в тени. Характеристика душности погоды. При расчете учитывается влияние влажности воздуха и скорости ветра на теплоощущения человека.
Tes - Эффективная температура на солнце - температура, которую ощущает человек, с поправкой на солнечный нагрев. Характеристика знойности погоды. Зависит от высоты солнца над горизонтом, облачности и скорости ветра. Ночью, в пасмурную погоду, а также при ветре 12 м/с и более поправка равна нулю.
P - Атмосферное давление - приведенное к уровню моря атмосферное давление.
Po - Атмосферное давление - измеренное на уровне метеостанции атмосферное давление.
Tmin - Минимальная температура - минимум температуры воздуха на высоте 2 м над землей.
Tmax - Максимальная температура - максимум температуры воздуха на высоте 2 м над землей.
R - Количество осадков - Количество выпавших осадков за период времени, мм. При наведении курсора мыши на число - период времени, за который выпало указанное количество осадков.
R24 - Количество осадков - Количество выпавших осадков за 24 часа, мм.
S - Снежный покров - Высота снежного покрова, см. При наведении курсора мыши на число - состояние снежного покрова и степень покрытия местности в баллах.